Date String (YYYY-MM-DD hh:mm:ss) UTC,Instrument flags,absolute air pressure of the measurement (hPa),sample flow rate (lpm),inlet stack bypass flow (lpm),air temperature of the measurement (°C),ambient temperature measured by the external sensor (°C),aerosol sample conditioner tube jacket temperature (°C),OPC LED temperature (°C),internal box temperature (°C),relative humidity of the measurement (%),span deviation,mass concentration of particles derived from Lorenz-Mie calculation of OPC scattering (μg/m³),mass concentration of particles derived from Lorenz-Mie calculation of OPC scattering (μg/m³),mass concentration of particles derived from Lorenz-Mie calculation of OPC scattering (μg/m³)
DateTimeUTC,F1_M11,P_M11,Q1_M11,Q2_M11,T1_M11,T2_M11,T3_M11,T4_M11,T5_M11,U1_M11,ZSPAN_M11,X0_M11,X2_M11,X1_M11
2023-12-05 08:00:00,SystemResetWarning,0834.1,4.99,000.00,021.9,020.9,000.0,030.2,023.1,18.9,0000.0,0005.91,0002.20,0001.50
2023-12-05 08:01:00,SystemResetWarning,0834.2,5.00,000.00,021.9,020.9,000.0,030.2,023.1,18.9,0000.0,0005.64,0002.14,0001.49
2023-12-05 08:02:00,SystemResetWarning,0834.2,5.00,000.00,021.9,020.9,000.0,030.2,023.1,18.9,0000.0,0005.55,0002.11,0001.48
2023-12-05 08:03:00,SystemResetWarning,0834.1,5.00,000.00,021.9,020.9,000.0,030.2,023.1,18.9,0000.0,0005.55,0002.11,0001.48
2023-12-05 08:04:00,SystemResetWarning,0834.1,5.00,000.00,021.9,020.9,000.0,030.2,023.1,18.9,0000.0,0005.69,0002.12,0001.48
2023-12-05 08:05:00,SystemResetWarning,0834.1,5.00,000.00,021.8,020.9,000.0,030.2,023.1,18.9,0000.0,0005.88,0002.12,0001.49
2023-12-05 08:06:00,SystemResetWarning,0834.1,5.00,000.00,021.8,020.9,000.0,030.2,023.1,18.9,0000.0,0005.78,0002.12,0001.49
2023-12-05 08:07:00,SystemResetWarning,0834.1,5.00,000.00,021.8,020.9,000.0,030.2,023.1,18.9,0000.0,0005.57,0002.12,0001.50
2023-12-05 08:08:00,SystemResetWarning,0834.1,5.00,000.00,021.8,020.9,000.0,030.2,023.1,18.9,0000.0,0005.17,0002.08,0001.50
2023-12-05 08:09:00,SystemResetWarning,0834.2,5.00,000.00,021.8,020.9,000.0,030.2,023.1,18.9,0000.0,0004.22,0002.04,0001.50
2023-12-05 08:10:00,SystemResetWarning,0834.2,5.00,000.00,021.8,020.9,000.0,030.2,023.1,18.9,0000.0,0003.24,0002.03,0001.51
2023-12-05 08:11:00,SystemResetWarning,0834.2,5.00,000.00,021.8,020.9,000.0,030.2,023.1,19.0,0000.0,0003.24,0002.03,0001.51
2023-12-05 08:12:00,SystemResetWarning,0834.3,5.00,000.00,021.8,020.9,000.0,030.2,023.1,19.0,0000.0,0003.54,0002.07,0001.52
2023-12-05 08:13:00,SystemResetWarning,0834.4,5.00,000.00,021.8,020.9,000.0,030.2,023.1,19.0,0000.0,0003.95,0002.09,0001.53
2023-12-05 08:14:00,SystemResetWarning,0834.2,5.00,000.00,021.8,020.9,000.0,030.2,023.0,19.0,0000.0,0003.92,0002.05,0001.54
2023-12-05 08:15:00,SystemResetWarning,0834.1,5.00,000.00,021.8,020.9,000.0,030.2,023.1,19.0,0000.0,0003.67,0002.01,0001.54
2023-12-05 08:16:00,SystemResetWarning,0834.1,5.00,000.00,021.8,020.9,000.0,030.2,023.0,19.1,0000.0,0003.74,0002.04,0001.54
2023-12-05 08:17:00,SystemResetWarning,0834.1,5.00,000.00,021.8,020.9,000.0,030.2,023.0,19.1,0000.0,0003.92,0002.09,0001.54
2023-12-05 08:18:00,SystemResetWarning,0834.1,5.00,000.00,021.8,020.9,000.0,030.1,023.0,19.1,0000.0,0003.89,0002.05,0001.52
2023-12-05 08:19:00,SystemResetWarning,0834.0,4.99,000.00,021.8,020.9,000.0,030.1,023.0,19.1,0000.0,0004.04,0002.10,0001.52
2023-12-05 08:20:00,SystemResetWarning,0834.0,5.00,000.00,021.8,020.9,000.0,030.1,023.1,19.0,0000.0,0004.04,0002.08,0001.53
2023-12-05 08:21:00,SystemResetWarning,0834.0,5.00,000.00,021.8,020.9,000.0,030.1,023.1,19.0,0000.0,0004.52,0002.09,0001.52
2023-12-05 08:22:00,SystemResetWarning,0834.1,5.00,000.00,021.8,020.9,000.0,030.1,023.1,19.0,0000.0,0004.83,0002.05,0001.51
2023-12-05 08:23:00,SystemResetWarning,0834.1,5.00,000.00,021.8,020.9,000.0,030.1,023.1,19.0,0000.0,0006.61,0002.04,0001.50
2023-12-05 08:24:00,SystemResetWarning,0834.0,5.00,000.00,021.8,020.9,000.0,030.1,023.1,19.0,0000.0,0006.82,0002.05,0001.50
2023-12-05 08:25:00,SystemResetWarning,0834.0,5.00,000.00,021.8,020.8,000.0,030.1,023.1,19.1,0000.0,0008.12,0002.07,0001.49
2023-12-05 08:26:00,SystemResetWarning,0834.0,5.00,000.00,021.8,020.8,000.0,030.1,023.0,19.1,0000.0,0008.54,0002.09,0001.50
2023-12-05 08:27:00,SystemResetWarning,0834.1,5.00,000.00,021.8,020.8,000.0,030.1,023.1,19.1,0000.0,0008.49,0002.07,0001.49
2023-12-05 08:28:00,SystemResetWarning,0834.1,5.00,000.00,021.8,020.8,000.0,030.1,023.1,19.1,0000.0,0008.38,0002.01,0001.47
2023-12-05 08:29:00,SystemResetWarning,0834.1,5.00,000.00,021.8,020.8,000.0,030.1,023.1,19.1,0000.0,0008.34,0002.00,0001.47
2023-12-05 08:30:00,SystemResetWarning,0834.1,5.00,000.00,021.8,020.8,000.0,030.1,023.0,19.1,0000.0,0008.54,0001.97,0001.47
2023-12-05 08:31:00,SystemResetWarning,0834.1,5.01,000.00,021.8,020.8,000.0,030.1,023.0,19.2,0000.0,0009.10,0001.99,0001.46
2023-12-05 08:32:00,SystemResetWarning,0834.0,5.01,000.00,021.8,020.8,000.0,030.1,023.0,19.2,0000.0,0008.83,0001.99,0001.46
2023-12-05 08:33:00,SystemResetWarning,0834.0,5.00,000.00,021.8,020.8,000.0,030.1,023.0,19.1,0000.0,0008.60,0001.99,0001.48
2023-12-05 08:34:00,SystemResetWarning,0834.0,5.00,000.00,021.8,020.8,000.0,030.1,023.0,19.2,0000.0,0007.68,0002.04,0001.49
2023-12-05 08:35:00,SystemResetWarning,0834.0,5.00,000.00,021.8,020.8,000.0,030.1,023.0,19.1,0000.0,0007.16,0002.00,0001.50
2023-12-05 08:36:00,SystemResetWarning,0833.9,5.00,000.00,021.8,020.8,000.0,030.1,023.0,19.1,0000.0,0005.16,0002.02,0001.51
2023-12-05 08:37:00,SystemResetWarning,0833.9,5.00,000.00,021.8,020.8,000.0,030.1,023.0,19.2,0000.0,0004.61,0002.06,0001.52
2023-12-05 08:38:00,SystemResetWarning,0834.0,5.00,000.00,021.8,020.8,000.0,030.1,023.0,19.1,0000.0,0004.51,0002.06,0001.54
2023-12-05 08:39:00,SystemResetWarning,0833.9,5.01,000.00,021.8,020.8,000.0,030.1,023.0,19.2,0000.0,0004.52,0002.06,0001.56
2023-12-05 08:40:00,SystemResetWarning,0833.9,5.01,000.00,021.7,020.8,000.0,030.1,023.0,19.2,0000.0,0004.62,0002.08,0001.57
2023-12-05 08:41:00,SystemResetWarning,0834.0,5.00,000.00,021.7,020.8,000.0,030.1,023.0,19.2,0000.0,0004.16,0002.10,0001.59
2023-12-05 08:42:00,SystemResetWarning,0834.0,5.00,000.00,021.7,020.8,000.0,030.1,023.0,19.2,0000.0,0004.18,0002.09,0001.60
2023-12-05 08:43:00,SystemResetWarning,0834.0,5.00,000.00,021.7,020.8,000.0,030.1,023.0,19.2,0000.0,0004.99,0002.11,0001.60
2023-12-05 08:44:00,SystemResetWarning,0834.0,5.00,000.00,021.7,020.8,000.0,030.1,023.0,19.2,0000.0,0005.15,0002.16,0001.59
2023-12-05 08:45:00,SystemResetWarning,0834.0,5.00,000.00,021.7,020.8,000.0,030.1,023.0,19.2,0000.0,0005.25,0002.14,0001.59
2023-12-05 08:46:00,SystemResetWarning,0834.0,5.00,000.00,021.7,020.8,000.0,030.1,023.0,19.2,0000.0,0005.44,0002.19,0001.58
2023-12-05 08:47:00,SystemResetWarning,0834.0,4.99,000.00,021.7,020.8,000.0,030.1,023.0,19.1,0000.0,0006.49,0002.20,0001.58
2023-12-05 08:48:00,SystemResetWarning,0834.1,4.99,000.00,021.7,020.8,000.0,030.1,023.0,19.1,0000.0,0007.57,0002.17,0001.58
2023-12-05 08:49:00,SystemResetWarning,0834.1,5.00,000.00,021.7,020.8,000.0,030.0,023.0,19.1,0000.0,0009.30,0002.21,0001.58
2023-12-05 08:50:00,SystemResetWarning,0834.2,5.00,000.00,021.7,020.8,000.0,030.0,023.0,19.1,0000.0,0009.73,0002.25,0001.59
2023-12-05 08:51:00,SystemResetWarning,0834.1,5.00,000.00,021.7,020.8,000.0,030.0,023.0,19.1,0000.0,0009.75,0002.27,0001.59
2023-12-05 08:52:00,SystemResetWarning,0834.1,5.00,000.00,021.7,020.8,000.0,030.0,023.0,19.1,0000.0,0009.88,0002.27,0001.59
2023-12-05 08:53:00,SystemResetWarning,0834.0,5.00,000.00,021.7,020.8,000.0,030.0,023.0,19.1,0000.0,0009.60,0002.28,0001.58
2023-12-05 08:54:00,SystemResetWarning,0834.0,5.00,000.00,021.7,020.8,000.0,030.0,022.9,19.1,0000.0,0009.12,0002.26,0001.59
2023-12-05 08:55:00,SystemResetWarning,0834.0,5.00,000.00,021.7,020.8,000.0,030.0,022.9,19.1,0000.0,0009.11,0002.22,0001.60
2023-12-05 08:56:00,SystemResetWarning,0834.0,5.00,000.00,021.7,020.8,000.0,030.0,022.9,19.1,0000.0,0009.01,0002.21,0001.60
2023-12-05 08:57:00,SystemResetWarning,0833.9,5.00,000.00,021.7,020.8,000.0,030.0,022.9,19.2,0000.0,0009.28,0002.20,0001.60
2023-12-05 08:58:00,SystemResetWarning,0834.0,5.00,000.00,021.7,020.8,000.0,030.0,023.0,19.2,0000.0,0008.87,0002.17,0001.61
2023-12-05 08:59:00,SystemResetWarning,0834.0,5.00,000.00,021.7,020.7,000.0,030.0,023.0,19.2,0000.0,0008.62,0002.16,0001.61
